When you browse on this site, cookies collect data to enhance your experience and personalize the content and advertising you see.
Visit our Privacy Policy to learn more. By continuing to use the site, you agree to this use of cookies and data.
  • In Czech Republic
  • List of Countries
  • For 7 days
  • Water Temperature
  • Weather Map
  • Weather Widgets
  • user-avatar
    Login

    Hourly Weather Cacheu

    Today, 19 October, Saturday

    Time Temperature Precipitation Wind Pressure Humidity
    00:00 +28°C° 0 mm 2 mps 757 mmHg 91%
    01:00 +28°C° 0 mm 2 mps 757 mmHg 91%
    02:00 +28°C° 0 mm 2 mps 757 mmHg 91%
    03:00 +28°C° 0 mm 2 mps 756 mmHg 91%
    04:00 +28°C° 0 mm 1 mps 756 mmHg 91%
    05:00 +28°C° 0 mm 1 mps 756 mmHg 92%
    06:00 +28°C° 0 mm 2 mps 757 mmHg 88%
    07:00 +29°C° 0 mm 2 mps 757 mmHg 84%
    08:00 +30°C° 0 mm 2 mps 758 mmHg 81%
    09:00 +32°C° 0 mm 2 mps 757 mmHg 72%
    10:00 +35°C° 0 mm 2 mps 757 mmHg 64%
    11:00 +36°C° 0 mm 2 mps 757 mmHg 55%
    12:00 +37°C° 0 mm 2 mps 757 mmHg 51%
    13:00 +38°C° 0 mm 3 mps 756 mmHg 47%
    14:00 +39°C° 0 mm 3 mps 755 mmHg 43%
    15:00 +37°C° 0 mm 3 mps 755 mmHg 49%
    16:00 +35°C° 0 mm 3 mps 755 mmHg 56%
    17:00 +34°C° 0 mm 3 mps 755 mmHg 62%
    18:00 +31°C° 0 mm 3 mps 756 mmHg 69%
    19:00 +30°C° 0 mm 3 mps 756 mmHg 76%
    20:00 +28°C° 0 mm 2 mps 757 mmHg 84%
    21:00 +28°C° 0 mm 2 mps 757 mmHg 86%
    22:00 +28°C° 0 mm 3 mps 757 mmHg 88%
    23:00 +27°C° 0 mm 3 mps 757 mmHg 91%

    Tomorrow, 20 October, Sunday

    Time Temperature Precipitation Wind Pressure Humidity
    00:00 +27°C° 0 mm 2 mps 757 mmHg 91%
    01:00 +27°C° 0 mm 2 mps 756 mmHg 92%
    02:00 +27°C° 0 mm 2 mps 756 mmHg 93%
    03:00 +27°C° 0 mm 2 mps 756 mmHg 93%
    04:00 +27°C° 0 mm 2 mps 756 mmHg 94%
    05:00 +27°C° 0 mm 2 mps 756 mmHg 94%
    06:00 +28°C° 0 mm 2 mps 756 mmHg 89%
    07:00 +29°C° 0 mm 3 mps 757 mmHg 85%
    08:00 +30°C° 0 mm 3 mps 757 mmHg 80%
    09:00 +32°C° 0 mm 2 mps 757 mmHg 70%
    10:00 +35°C° 0 mm 2 mps 757 mmHg 59%
    11:00 +36°C° 0 mm 1 mps 756 mmHg 49%
    12:00 +37°C° 0 mm 2 mps 756 mmHg 50%
    13:00 +37°C° 0 mm 2 mps 756 mmHg 50%
    14:00 +37°C° 0 mm 3 mps 755 mmHg 51%
    15:00 +35°C° 0 mm 3 mps 755 mmHg 59%
    16:00 +34°C° 0 mm 4 mps 755 mmHg 67%
    17:00 +32°C° 0 mm 4 mps 755 mmHg 76%
    18:00 +30°C° 0 mm 3 mps 755 mmHg 79%
    19:00 +29°C° 0 mm 3 mps 756 mmHg 83%
    20:00 +28°C° 0 mm 2 mps 757 mmHg 86%
    21:00 +28°C° 0 mm 2 mps 757 mmHg 88%
    22:00 +28°C° 0 mm 2 mps 757 mmHg 89%
    23:00 +27°C° 0 mm 2 mps 757 mmHg 90%

    Day after tomorrow, 21 October, Monday

    Time Temperature Precipitation Wind Pressure Humidity
    00:00 +27°C° 0 mm 1 mps 756 mmHg 90%
    01:00 +27°C° 0 mm 1 mps 756 mmHg 91%
    02:00 +27°C° 0 mm 1 mps 756 mmHg 91%
    03:00 +27°C° 0 mm 1 mps 756 mmHg 91%
    04:00 +26°C° 0 mm 1 mps 756 mmHg 90%
    05:00 +26°C° 0 mm 1 mps 756 mmHg 90%
    06:00 +27°C° 0 mm 1 mps 756 mmHg 83%
    07:00 +29°C° 0 mm 2 mps 757 mmHg 76%
    08:00 +30°C° 0 mm 2 mps 758 mmHg 69%
    09:00 +32°C° 0 mm 2 mps 757 mmHg 60%
    10:00 +34°C° 0 mm 1 mps 757 mmHg 52%
    11:00 +36°C° 0 mm 1 mps 757 mmHg 43%
    12:00 +36°C° 0 mm 1 mps 757 mmHg 40%
    13:00 +38°C° 0 mm 2 mps 756 mmHg 38%
    14:00 +38°C° 0 mm 2 mps 755 mmHg 36%
    15:00 +36°C° 0 mm 2 mps 755 mmHg 45%
    16:00 +34°C° 0 mm 3 mps 755 mmHg 54%
    17:00 +31°C° 0 mm 3 mps 755 mmHg 63%
    18:00 +30°C° 0 mm 3 mps 756 mmHg 67%
    19:00 +29°C° 0 mm 3 mps 756 mmHg 72%
    20:00 +28°C° 0 mm 3 mps 757 mmHg 76%
    21:00 +28°C° 0 mm 3 mps 757 mmHg 79%
    22:00 +27°C° 0 mm 2 mps 757 mmHg 82%
    23:00 +27°C° 0 mm 2 mps 757 mmHg 85%

    22 October, Tuesday

    Time Temperature Precipitation Wind Pressure Humidity
    00:00 +27°C° 0 mm 2 mps 756 mmHg 86%
    01:00 +26°C° 0 mm 2 mps 756 mmHg 88%
    02:00 +26°C° 0 mm 2 mps 755 mmHg 90%
    03:00 +26°C° 0 mm 2 mps 755 mmHg 89%
    04:00 +26°C° 0 mm 2 mps 756 mmHg 89%
    05:00 +25°C° 0 mm 1 mps 756 mmHg 88%
    06:00 +27°C° 0 mm 2 mps 756 mmHg 80%
    07:00 +28°C° 0 mm 2 mps 756 mmHg 73%
    08:00 +29°C° 0 mm 2 mps 757 mmHg 66%
    09:00 +31°C° 0 mm 2 mps 757 mmHg 57%
    10:00 +34°C° 0 mm 2 mps 757 mmHg 48%
    11:00 +36°C° 0 mm 2 mps 757 mmHg 39%
    12:00 +36°C° 0 mm 2 mps 756 mmHg 38%
    13:00 +37°C° 0 mm 3 mps 755 mmHg 36%
    14:00 +38°C° 0 mm 3 mps 754 mmHg 34%
    15:00 +37°C° 0 mm 3 mps 754 mmHg 39%
    16:00 +35°C° 0 mm 2 mps 754 mmHg 44%
    17:00 +34°C° 0 mm 2 mps 754 mmHg 49%
    18:00 +31°C° 0 mm 2 mps 754 mmHg 57%
    19:00 +30°C° 0 mm 2 mps 755 mmHg 65%
    20:00 +28°C° 0 mm 2 mps 755 mmHg 72%
    21:00 +27°C° 0 mm 2 mps 755 mmHg 76%
    22:00 +27°C° 0 mm 2 mps 755 mmHg 79%
    23:00 +26°C° 0 mm 1 mps 755 mmHg 83%

    23 October, Wednesday

    Time Temperature Precipitation Wind Pressure Humidity
    00:00 +26°C° 0 mm 1 mps 755 mmHg 83%
    01:00 +26°C° 0 mm 2 mps 754 mmHg 83%
    02:00 +26°C° 0 mm 2 mps 754 mmHg 83%
    03:00 +26°C° 0 mm 2 mps 754 mmHg 80%
    04:00 +25°C° 0 mm 2 mps 754 mmHg 77%
    05:00 +25°C° 0 mm 2 mps 754 mmHg 74%
    06:00 +26°C° 0 mm 2 mps 754 mmHg 71%
    07:00 +27°C° 0 mm 2 mps 755 mmHg 68%
    08:00 +28°C° 0 mm 2 mps 755 mmHg 65%
    09:00 +30°C° 0 mm 2 mps 755 mmHg 60%
    10:00 +32°C° 0 mm 2 mps 755 mmHg 56%
    11:00 +35°C° 0 mm 2 mps 755 mmHg 51%
    12:00 +35°C° 0 mm 3 mps 755 mmHg 53%
    13:00 +35°C° 0 mm 4 mps 754 mmHg 55%
    14:00 +34°C° 0 mm 4 mps 753 mmHg 57%
    15:00 +33°C° 0 mm 4 mps 754 mmHg 62%
    16:00 +31°C° 0 mm 3 mps 754 mmHg 67%
    17:00 +30°C° 0 mm 2 mps 754 mmHg 71%
    18:00 +30°C° 0 mm 2 mps 754 mmHg 74%
    19:00 +29°C° 0 mm 2 mps 755 mmHg 77%
    20:00 +28°C° 0 mm 2 mps 755 mmHg 80%
    21:00 +28°C° 0 mm 2 mps 755 mmHg 81%
    22:00 +28°C° 0 mm 2 mps 756 mmHg 83%
    23:00 +28°C° 0 mm 2 mps 756 mmHg 84%

    24 October, Thursday

    Time Temperature Precipitation Wind Pressure Humidity
    00:00 +27°C° 0 mm 2 mps 755 mmHg 85%
    01:00 +27°C° 0 mm 1 mps 755 mmHg 87%
    02:00 +27°C° 0 mm 1 mps 755 mmHg 88%
    03:00 +27°C° 0 mm 2 mps 755 mmHg 87%
    04:00 +27°C° 0 mm 2 mps 755 mmHg 86%
    05:00 +28°C° 0 mm 2 mps 755 mmHg 85%
    06:00 +29°C° 0 mm 2 mps 756 mmHg 81%
    07:00 +30°C° 0 mm 2 mps 756 mmHg 76%
    08:00 +31°C° 0 mm 2 mps 756 mmHg 72%
    09:00 +32°C° 0 mm 2 mps 756 mmHg 65%
    10:00 +35°C° 0 mm 3 mps 756 mmHg 59%
    11:00 +36°C° 0 mm 3 mps 756 mmHg 52%
    12:00 +36°C° 0.2 mm 3 mps 756 mmHg 53%
    13:00 +36°C° 0.2 mm 3 mps 755 mmHg 53%
    14:00 +36°C° 0.2 mm 3 mps 755 mmHg 54%
    15:00 +35°C° 0.6 mm 3 mps 755 mmHg 60%
    16:00 +33°C° 0.6 mm 3 mps 755 mmHg 66%
    17:00 +31°C° 0.6 mm 2 mps 756 mmHg 72%
    18:00 +30°C° 0.4 mm 2 mps 756 mmHg 77%
    19:00 +29°C° 0.4 mm 2 mps 756 mmHg 82%
    20:00 +28°C° 0.4 mm 2 mps 757 mmHg 87%
    21:00 +27°C° 0.1 mm 1 mps 757 mmHg 87%
    22:00 +27°C° 0.1 mm 1 mps 757 mmHg 88%
    23:00 +27°C° 0.1 mm 1 mps 757 mmHg 88%
    Show more